Location: Unspecified
(33.6682°S, 0.0000°E)
Time: 09:51:31
(UTC+00:00)

Tiros 1 despin weight - Pass Details

Date: 22 June 2019
Orbit: 594 x 642 km, 48.2° (Epoch: 24 August)

Event Time Altitude Azimuth Distance (km) Brightness Sun altitude
Rises 16:57:26 0° 230° (SW) 2,970 ? -0.5°
Reaches altitude 10° 16:59:49 10° 226° (SW) 2,055 ? -0.9°
Maximum altitude 17:04:31 62° 145° (SE) 726 ? -1.8°
Drops below altitude 10° 17:09:09 10° 63° (ENE) 2,022 ? -2.6°
Sets 17:11:28 0° 60° (ENE) 2,918 ? -3.1°
